When you browse on this site, cookies collect data to enhance your experience and personalize the content and advertising you see.
Visit our Privacy Policy to learn more. By continuing to use the site, you agree to this use of cookies and data.
  • In Portugal
  • List of Countries
  • For 7 days
  • Water Temperature
  • Satellite Maps
  • Weather Map
  • Weather Widgets
  • user-avatar
    Login

    Hourly Weather Piertanie

    Today, 25 May, Saturday

    Time Temperature Precipitation Wind Pressure Humidity
    00:00 +12°C° 0 mm 2 mps 745 mmHg 82%
    01:00 +10°C° 0 mm 2 mps 745 mmHg 80%
    02:00 +11°C° 0 mm 1 mps 745 mmHg 81%
    03:00 +11°C° 0 mm 1 mps 745 mmHg 81%
    04:00 +11°C° 0 mm 1 mps 745 mmHg 81%
    05:00 +11°C° 0 mm 1 mps 744 mmHg 81%
    06:00 +13°C° 0 mm 2 mps 744 mmHg 77%
    07:00 +14°C° 0 mm 3 mps 744 mmHg 74%
    08:00 +17°C° 0 mm 4 mps 744 mmHg 70%
    09:00 +18°C° 0 mm 4 mps 745 mmHg 65%
    10:00 +19°C° 0 mm 4 mps 745 mmHg 61%
    11:00 +20°C° 0 mm 5 mps 745 mmHg 57%
    12:00 +20°C° 0.3 mm 4 mps 744 mmHg 62%
    13:00 +19°C° 0.3 mm 4 mps 744 mmHg 68%
    14:00 +18°C° 0.3 mm 4 mps 744 mmHg 73%
    15:00 +18°C° 0.1 mm 4 mps 744 mmHg 72%
    16:00 +17°C° 0.1 mm 5 mps 744 mmHg 71%
    17:00 +16°C° 0.1 mm 5 mps 744 mmHg 70%
    18:00 +15°C° 0 mm 4 mps 744 mmHg 74%
    19:00 +13°C° 0 mm 4 mps 744 mmHg 78%
    20:00 +12°C° 0 mm 3 mps 744 mmHg 81%
    21:00 +11°C° 0 mm 3 mps 745 mmHg 86%
    22:00 +9°C° 0 mm 2 mps 745 mmHg 90%
    23:00 +8°C° 0 mm 2 mps 745 mmHg 95%

    Tomorrow, 26 May, Sunday

    Time Temperature Precipitation Wind Pressure Humidity
    00:00 +7°C° 0 mm 2 mps 746 mmHg 95%
    01:00 +7°C° 0 mm 2 mps 746 mmHg 96%
    02:00 +7°C° 0 mm 2 mps 746 mmHg 97%
    03:00 +6°C° 0 mm 2 mps 746 mmHg 97%
    04:00 +6°C° 0 mm 2 mps 745 mmHg 97%
    05:00 +6°C° 0 mm 2 mps 745 mmHg 97%
    06:00 +8°C° 0 mm 3 mps 745 mmHg 90%
    07:00 +10°C° 0 mm 4 mps 745 mmHg 83%
    08:00 +12°C° 0 mm 5 mps 745 mmHg 77%
    09:00 +12°C° 0 mm 5 mps 745 mmHg 76%
    10:00 +13°C° 0 mm 5 mps 745 mmHg 75%
    11:00 +13°C° 0 mm 5 mps 745 mmHg 74%
    12:00 +13°C° 0 mm 5 mps 745 mmHg 74%
    13:00 +14°C° 0 mm 5 mps 745 mmHg 73%
    14:00 +14°C° 0 mm 5 mps 745 mmHg 73%
    15:00 +14°C° 0 mm 5 mps 744 mmHg 72%
    16:00 +14°C° 0 mm 5 mps 744 mmHg 71%
    17:00 +14°C° 0 mm 5 mps 744 mmHg 70%
    18:00 +14°C° 0 mm 4 mps 744 mmHg 74%
    19:00 +13°C° 0 mm 4 mps 744 mmHg 78%
    20:00 +13°C° 0 mm 3 mps 744 mmHg 81%
    21:00 +12°C° 0 mm 3 mps 744 mmHg 84%
    22:00 +11°C° 0 mm 3 mps 744 mmHg 87%
    23:00 +10°C° 0 mm 3 mps 743 mmHg 90%

    Day after tomorrow, 27 May, Monday

    Time Temperature Precipitation Wind Pressure Humidity
    00:00 +11°C° 0 mm 4 mps 743 mmHg 88%
    01:00 +12°C° 0 mm 4 mps 743 mmHg 85%
    02:00 +12°C° 0 mm 4 mps 743 mmHg 82%
    03:00 +12°C° 0 mm 4 mps 743 mmHg 84%
    04:00 +12°C° 0 mm 4 mps 743 mmHg 86%
    05:00 +12°C° 0 mm 4 mps 743 mmHg 87%
    06:00 +14°C° 0 mm 4 mps 743 mmHg 84%
    07:00 +15°C° 0 mm 4 mps 743 mmHg 81%
    08:00 +16°C° 0 mm 5 mps 743 mmHg 78%
    09:00 +17°C° 0 mm 6 mps 743 mmHg 75%
    10:00 +18°C° 0 mm 7 mps 743 mmHg 72%
    11:00 +20°C° 0 mm 7 mps 743 mmHg 69%
    12:00 +21°C° 0.4 mm 7 mps 743 mmHg 69%
    13:00 +21°C° 0.4 mm 7 mps 743 mmHg 70%
    14:00 +21°C° 0.4 mm 7 mps 743 mmHg 70%
    15:00 +21°C° 1 mm 6 mps 743 mmHg 75%
    16:00 +20°C° 1 mm 6 mps 743 mmHg 79%
    17:00 +20°C° 1 mm 5 mps 742 mmHg 83%
    18:00 +19°C° 0.8 mm 4 mps 743 mmHg 87%
    19:00 +18°C° 0.8 mm 3 mps 743 mmHg 90%
    20:00 +17°C° 0.8 mm 2 mps 743 mmHg 94%
    21:00 +16°C° 0 mm 2 mps 744 mmHg 95%
    22:00 +15°C° 0 mm 2 mps 744 mmHg 96%
    23:00 +14°C° 0 mm 2 mps 744 mmHg 97%

    28 May, Tuesday

    Time Temperature Precipitation Wind Pressure Humidity
    00:00 +14°C° 0 mm 2 mps 744 mmHg 96%
    01:00 +14°C° 0 mm 1 mps 744 mmHg 96%
    02:00 +14°C° 0 mm 1 mps 745 mmHg 95%
    03:00 +13°C° 0 mm 1 mps 745 mmHg 94%
    04:00 +13°C° 0 mm 1 mps 745 mmHg 94%
    05:00 +13°C° 0 mm 1 mps 745 mmHg 93%
    06:00 +14°C° 0 mm 2 mps 745 mmHg 92%
    07:00 +14°C° 0 mm 2 mps 745 mmHg 90%
    08:00 +14°C° 0 mm 3 mps 745 mmHg 89%
    09:00 +14°C° 1.5 mm 3 mps 744 mmHg 91%
    10:00 +14°C° 1.5 mm 3 mps 744 mmHg 93%
    11:00 +16°C° 1.5 mm 3 mps 743 mmHg 95%
    12:00 +16°C° 1.6 mm 3 mps 743 mmHg 96%
    13:00 +16°C° 1.6 mm 2 mps 743 mmHg 96%
    14:00 +16°C° 1.6 mm 2 mps 742 mmHg 97%
    15:00 +17°C° 0.1 mm 2 mps 742 mmHg 95%
    16:00 +18°C° 0.1 mm 2 mps 741 mmHg 94%
    17:00 +18°C° 0.1 mm 3 mps 741 mmHg 92%
    18:00 +18°C° 0 mm 3 mps 741 mmHg 93%
    19:00 +18°C° 0 mm 3 mps 741 mmHg 94%
    20:00 +17°C° 0 mm 3 mps 741 mmHg 96%
    21:00 +17°C° 0.1 mm 3 mps 741 mmHg 97%
    22:00 +16°C° 0.1 mm 3 mps 741 mmHg 97%
    23:00 +16°C° 0.1 mm 3 mps 741 mmHg 98%

    29 May, Wednesday

    Time Temperature Precipitation Wind Pressure Humidity
    00:00 +16°C° 0.3 mm 3 mps 740 mmHg 98%
    01:00 +16°C° 0.3 mm 2 mps 740 mmHg 98%
    02:00 +16°C° 0.3 mm 2 mps 740 mmHg 98%
    03:00 +16°C° 0.1 mm 2 mps 740 mmHg 98%
    04:00 +16°C° 0.1 mm 2 mps 740 mmHg 98%
    05:00 +16°C° 0.1 mm 2 mps 740 mmHg 98%
    06:00 +16°C° 0 mm 2 mps 740 mmHg 97%
    07:00 +16°C° 0 mm 2 mps 740 mmHg 96%
    08:00 +17°C° 0 mm 3 mps 741 mmHg 95%
    09:00 +16°C° 1 mm 3 mps 741 mmHg 95%
    10:00 +16°C° 1 mm 3 mps 741 mmHg 94%
    11:00 +15°C° 1 mm 4 mps 741 mmHg 94%
    12:00 +15°C° 0.8 mm 4 mps 742 mmHg 94%
    13:00 +15°C° 0.8 mm 5 mps 742 mmHg 93%
    14:00 +15°C° 0.8 mm 6 mps 743 mmHg 93%
    15:00 +14°C° 0.6 mm 6 mps 743 mmHg 93%
    16:00 +13°C° 0.6 mm 6 mps 743 mmHg 94%
    17:00 +11°C° 0.6 mm 6 mps 744 mmHg 95%
    18:00 +10°C° 0.5 mm 7 mps 744 mmHg 94%
    19:00 +10°C° 0.5 mm 7 mps 745 mmHg 94%
    20:00 +9°C° 0.5 mm 7 mps 746 mmHg 94%
    21:00 +8°C° 0.3 mm 6 mps 746 mmHg 94%
    22:00 +8°C° 0.3 mm 6 mps 747 mmHg 93%
    23:00 +7°C° 0.3 mm 5 mps 748 mmHg 92%

    30 May, Thursday

    Time Temperature Precipitation Wind Pressure Humidity
    00:00 +7°C° 0 mm 5 mps 748 mmHg 91%
    01:00 +6°C° 0 mm 4 mps 749 mmHg 90%
    02:00 +6°C° 0 mm 4 mps 749 mmHg 89%
    03:00 +5°C° 0 mm 3 mps 750 mmHg 89%
    04:00 +5°C° 0 mm 3 mps 750 mmHg 89%
    05:00 +4°C° 0 mm 3 mps 751 mmHg 89%
    06:00 +7°C° 0 mm 3 mps 751 mmHg 82%
    07:00 +9°C° 0 mm 3 mps 751 mmHg 76%
    08:00 +10°C° 0 mm 3 mps 752 mmHg 70%
    09:00 +12°C° 0 mm 3 mps 752 mmHg 63%
    10:00 +14°C° 0 mm 3 mps 753 mmHg 56%
    11:00 +16°C° 0 mm 3 mps 753 mmHg 49%
    12:00 +17°C° 0 mm 3 mps 753 mmHg 49%
    13:00 +17°C° 0 mm 3 mps 753 mmHg 49%
    14:00 +17°C° 0 mm 3 mps 753 mmHg 49%
    15:00 +17°C° 0 mm 2 mps 753 mmHg 50%
    16:00 +17°C° 0 mm 2 mps 753 mmHg 50%
    17:00 +17°C° 0 mm 2 mps 753 mmHg 51%
    18:00 +16°C° 0 mm 2 mps 753 mmHg 57%
    19:00 +15°C° 0 mm 1 mps 753 mmHg 63%
    20:00 +14°C° 0 mm 1 mps 753 mmHg 68%
    21:00 +13°C° 0 mm 1 mps 753 mmHg 69%
    22:00 +12°C° 0 mm 1 mps 753 mmHg 69%
    23:00 +12°C° 0 mm 1 mps 753 mmHg 70%
    Show more